Traverse City, MI

1:16 AM EDT on September 29, 2016 (GMT -0400)
Cherry Capital

Weather History for KTVC - November, 2011

Change the Weather History Date:

Saturday, November 26, 2011

  Actual Average Record
Temperature  
Mean Temperature 52 °F 33 °F  
Max Temperature 54 °F 39 °F 63 °F (1960)
Min Temperature 50 °F 27 °F 3 °F (1974)
Degree Days  
Heating Degree Days 13 32  
Month to date heating degree days 572 700  
Since 1 July heating degree days 1193 1487  
Growing Degree Days 2 (Base 50)    
Moisture  
Dew Point 47 °F    
Average Humidity 80    
Maximum Humidity 89    
Minimum Humidity 71    
Precipitation  
Precipitation 0.17 in 0.09 in 1.08 in (1979)
Month to date precipitation 2.79 2.37  
Year to date precipitation 25.33 30.23  
Sea Level Pressure  
Sea Level Pressure 29.79 in    
Wind  
Wind Speed 5 mph (SSW)    
Max Wind Speed 12 mph    
Max Gust Speed 17 mph    
Visibility 7 miles    
Events Rain    
T = Trace of Precipitation, MM = Missing Value Source: NWS Daily Summary

Daily Weather History Graph

Daily Weather History Graph

Search for Another Location

Airport or City:

Trip Planner

Search our weather history database for the weather conditions in past years. The results will help you decide how hot, cold, wet, or windy it might be!

Date:

Astronomy

Nov. 26, 2011 Rise Set
Actual Time 7:53 AM EST 5:05 PM EST
Civil Twilight 7:20 AM EST 5:38 PM EST
Nautical Twilight 6:44 AM EST 6:14 PM EST
Astronomical Twilight 6:09 AM EST 6:49 PM EST
Moon 9:26 AM EST (11/26) 6:33 PM EST (11/26)
Length of Visible Light 10h 17m
Length of Day
9h 12m
Waxing Crescent, 3% of the Moon is Illuminated
Nov 26
Waxing Crescent
Dec 2
First Quarter
Dec 10
Full
Dec 17
Last Quarter
Dec 24
New

Hourly Weather History & Observations

Time (EST) Temp. Dew Point Humidity Pressure Visibility Wind Dir Wind Speed Gust Speed Precip Events Conditions
12:53 AM 51.1 °F 43.0 °F 74% 29.89 in 9.0 mi Variable 3.5 mph - N/A   Overcast
1:53 AM 52.0 °F 44.1 °F 74% 29.89 in 10.0 mi SSW 4.6 mph - N/A   Overcast
2:53 AM 52.0 °F 45.0 °F 77% 29.88 in 9.0 mi South 4.6 mph - N/A   Overcast
3:53 AM 52.0 °F 45.0 °F 77% 29.87 in 9.0 mi Calm Calm - N/A   Overcast
4:28 AM 51.8 °F 44.6 °F 76% 29.85 in 9.0 mi Calm Calm - N/A   Overcast
4:53 AM 51.8 °F 44.6 °F 76% 29.85 in 9.0 mi Calm Calm - N/A   Overcast
5:53 AM 52.0 °F 45.0 °F 77% 29.84 in 10.0 mi SSE 3.5 mph - N/A   Overcast
6:53 AM 52.0 °F 44.1 °F 74% 29.85 in 10.0 mi SSE 5.8 mph - N/A   Overcast
7:53 AM 53.1 °F 44.1 °F 71% 29.83 in 10.0 mi South 4.6 mph - N/A   Overcast
8:53 AM 53.1 °F 44.1 °F 71% 29.84 in 10.0 mi Variable 5.8 mph - N/A   Overcast
9:53 AM 54.0 °F 44.1 °F 69% 29.83 in 10.0 mi Variable 6.9 mph - N/A   Overcast
10:53 AM 54.0 °F 44.1 °F 69% 29.84 in 10.0 mi Variable 6.9 mph - N/A   Overcast
11:19 AM 53.6 °F 44.6 °F 72% 29.83 in 10.0 mi South 3.5 mph - N/A   Overcast
11:53 AM 52.0 °F 46.0 °F 80% 29.82 in 4.0 mi South 6.9 mph - N/A   Overcast
12:53 PM 51.1 °F 46.9 °F 86% 29.80 in 10.0 mi South 5.8 mph - N/A   Overcast
1:53 PM 52.0 °F 46.9 °F 83% 29.77 in 6.0 mi South 8.1 mph - 0.00 in   Light Drizzle
2:44 PM 51.8 °F 48.2 °F 88% 29.76 in 2.5 mi South 4.6 mph - 0.01 in   Light Drizzle
2:53 PM 51.1 °F 48.0 °F 89% 29.77 in 2.5 mi Variable 5.8 mph - 0.01 in Rain Light Rain
3:00 PM 51.8 °F 48.2 °F 88% 29.76 in 3.0 mi South 3.5 mph - 0.00 in Rain Light Rain
3:11 PM 51.8 °F 48.2 °F 88% 29.76 in 2.0 mi Variable 3.5 mph - 0.00 in Rain Light Rain
3:53 PM 51.1 °F 48.0 °F 89% 29.77 in 2.0 mi Variable 3.5 mph - 0.04 in Rain Light Rain
4:12 PM 51.8 °F 48.2 °F 88% 29.76 in 4.0 mi Calm Calm - 0.01 in Rain Light Rain
4:16 PM 51.8 °F 48.2 °F 88% 29.76 in 5.0 mi South 3.5 mph - 0.01 in Rain Light Rain
4:23 PM 51.8 °F 48.2 °F 88% 29.76 in 7.0 mi Variable 3.5 mph - N/A Rain Light Rain
4:46 PM 51.8 °F 48.2 °F 88% 29.76 in 4.0 mi Calm Calm - 0.02 in Rain Light Rain
4:53 PM 51.1 °F 48.9 °F 92% 29.77 in 4.0 mi Variable 4.6 mph - 0.02 in Rain Light Rain
5:53 PM 51.1 °F 48.9 °F 92% 29.77 in 5.0 mi Variable 3.5 mph - 0.01 in Rain Light Rain
6:53 PM 51.8 °F 48.2 °F 88% 29.76 in 8.0 mi Variable 3.5 mph - N/A Rain Light Rain
7:53 PM 51.1 °F 48.9 °F 92% 29.75 in 10.0 mi SSW 4.6 mph - 0.01 in Rain Light Rain
8:01 PM 51.8 °F 48.2 °F 88% 29.74 in 10.0 mi Calm Calm - 0.00 in Rain Light Rain
8:53 PM 51.8 °F 48.2 °F 88% 29.74 in 10.0 mi South 4.6 mph - N/A Rain Light Rain
9:53 PM 52.0 °F 48.9 °F 89% 29.75 in 10.0 mi SW 4.6 mph - 0.00 in   Overcast
10:40 PM 51.8 °F 48.2 °F 88% 29.74 in 8.0 mi SW 3.5 mph - 0.01 in Rain Light Rain
11:38 PM 51.8 °F 48.2 °F 88% 29.73 in 6.0 mi West 3.5 mph - 0.02 in Rain Light Rain
11:53 PM 51.1 °F 48.9 °F 92% 29.73 in 6.0 mi West 3.5 mph - 0.03 in Rain Light Rain